"Pseudo-MPEC" for C2YLFQ2

Created 2020 Aug 6 7:07:03 UT using Find_Orb

Click here for an explanation of pseudo-MPECs

 
 Astrometry: 
     C2YLFQ2  C2020 07 30.36307 22 49 03.13 +06 53 11.2    ~7U9q 21.0 GVNEOCPG96
     C2YLFQ2  C2020 07 30.37030 22 49 06.19 +06 51 31.7    ~7U9q 21.1 GVNEOCPG96
     C2YLFQ2  C2020 07 30.37750 22 49 09.24 +06 49 53.0    ~7U9q       VNEOCPG96
     C2YLFQ2  C2020 07 30.38471 22 49 12.22 +06 48 15.4    ~7U9q 21.4 GVNEOCPG96
     C2YLFQ2  C2020 07 30.47724 22 49 51.09 +06 27 08.2    ~7UC7 20.9 GVNEOCPG96
     C2YLFQ2  C2020 07 30.47921 22 49 51.93 +06 26 41.4    ~7UC7 21.6 GVNEOCPG96
     C2YLFQ2  C2020 07 30.48117 22 49 52.78 +06 26 14.5    ~7UC7 20.8 GVNEOCPG96
     C2YLFQ2  C2020 07 30.48314 22 49 53.35 +06 25 56.3    ~7UC7       VNEOCPG96
     C2YLFQ2 pC2020 07 30(9AstrometryC*4Q9aL^UTS)Ryd8redacted;b#]0LPuQCqMK0JVL01
     C2YLFQ2 pC2020 07 30x!o`(S;6`yh_=nwclick%K5ihereat!l=L@i\jEZFntN!jdai-F`L01
     C2YLFQ2 pC2020 07 30!wfore'f.-'(btF4:ip^h**\%explanation2]owx8*xx_u=fbKML01
     C2YLFQ2  C2020 07 31.36523 22 56 33.01 +03 01 41.2    ~7V9b 20.8 GVNEOCPI52
     C2YLFQ2  C2020 07 31.37027 22 56 35.14 +03 00 31.5    ~7V9b 21.8 GVNEOCPI52
     C2YLFQ2  C2020 07 31.38034 22 56 39.33 +02 58 09.1    ~7V9b       VNEOCPI52

Station data:
(G96) Mt. Lemmon Survey  (N32.442754 W110.788720)  US/Arizona.  Observers T.
   A. Pruyne, B. M. Africano, E. J. Christensen, G. A. Farneth, D. C. Fuls,
   A. R. Gibbs, A. D. Grauer, H. Gröller, J. A. Johnson, R. A. Kowalski, S.
   M. Larson, G. J. Leonard, D. Rankin, R. L. Seaman, F. C. Shelly. 1.5-m
   reflector + 10K CCD.
(I52) Steward Observatory, Mt. Lemmon Station  (N32.442547 W110.788920)
   US/Arizona.  Observers T. A. Pruyne, B. M. Africano, E. J. Christensen, G.
   A. Farneth, D. C. Fuls, A. R. Gibbs, A. D. Grauer, H. Gröller, J. A.
   Johnson, R. A. Kowalski, S. M. Larson, G. J. Leonard, D. Rankin, R. L.
   Seaman, F. C. Shelly. 1.0-m reflector + CCD.
(L01) Višnjan Observatory, Tičan  (N45.290900 E13.749300)  Croatia.
   Observers K. Korlević, E. Pettarin. Measurer E. Pettarin. 1.0-m f/2.9
   reflector + CCD.

Orbital elements:  C2YLFQ2
   Perihelion 2020 Jul 22.772532 +/- 0.242 TT = 18:32:26 (JD 2459053.272532)
Epoch 2020 Jul 31.0 TT = JDT 2459061.5   Earth MOID: 0.0850   AutoNEOCP
M   3.58347860 +/- 0.18             (J2000 ecliptic)
n   0.43555060 +/- 0.0184           Peri.  169.31140 +/- 0.25
a   1.72362836 +/- 0.0484           Node   133.55493 +/- 0.07
e   0.3647327 +/- 0.0167            Incl.   24.57811 +/- 0.50
P   2.26/826.52d           H 24.7   G  0.15   U 10.1  
q 1.09496460 +/- 0.002    Q 2.35229213 +/- 0.094
From 14 observations 2020 July 30-31 (24.4 hr); mean residual 1".72
Residuals in arcseconds: 
200730 G96  .44-  .19-    200730 G96  .92+  .92-    200730 L01  .18-  .08-    
200730 G96  .00   1.1-    200730 G96  1.3+  .91-    200731 I52  .20+  .19-    
200730 G96  .50+  1.5-    200730 G96  2.6-  7.9+    200731 I52  .35+  .86+    
200730 G96  .08-  .71-    200730 L01  .19+  .49-    200731 I52  .29-  .15-    
200730 G96  .79+  1.2-    200730 L01  .45-  .79-    

Ephemerides (geocentric):
Date (UTC) HH   RA              Dec         delta   r     elong  mag " sig PA
---- -- -- --  -------------   -----------  ------ ------ -----  --- ---- ---
2020 08 06 07  23 40 25.287   -19 45 37.99  .11007 1.1044 143.2 21.5 66.3 159
2020 08 06 08  23 40 43.255   -19 54 24.81  .11018 1.1044 143.2 21.5 67.0 159
2020 08 06 09  23 41 01.210   -20 03 10.46  .11030 1.1045 143.2 21.5 67.8 159
2020 08 06 10  23 41 19.153   -20 11 54.92  .11041 1.1045 143.1 21.5 68.6 159
2020 08 06 11  23 41 37.084   -20 20 38.19  .11052 1.1046 143.1 21.5 69.3 159
2020 08 06 12  23 41 55.002   -20 29 20.27  .11064 1.1046 143.1 21.5 70.1 159
2020 08 06 13  23 42 12.908   -20 38 01.15  .11075 1.1047 143.0 21.5 70.8 158
2020 08 06 14  23 42 30.802   -20 46 40.82  .11087 1.1048 143.0 21.5 71.6 158
2020 08 06 15  23 42 48.682   -20 55 19.29  .11099 1.1048 143.0 21.5 72.4 158
2020 08 06 16  23 43 06.550   -21 03 56.53  .11111 1.1049 142.9 21.5 73.1 158
2020 08 06 17  23 43 24.405   -21 12 32.55  .11123 1.1049 142.9 21.5 73.9 158
2020 08 06 18  23 43 42.247   -21 21 07.35  .11135 1.1050 142.9 21.6 74.7 158
2020 08 06 19  23 44 00.077   -21 29 40.91  .11147 1.1050 142.8 21.6 75.4 158
2020 08 06 20  23 44 17.893   -21 38 13.23  .11159 1.1051 142.8 21.6 76.2 158
2020 08 06 21  23 44 35.696   -21 46 44.31  .11171 1.1051 142.8 21.6 77.0 158
2020 08 06 22  23 44 53.485   -21 55 14.14  .11184 1.1052 142.7 21.6 77.7 158
2020 08 06 23  23 45 11.262   -22 03 42.71  .11196 1.1052 142.7 21.6 78.5 158
2020 08 07 00  23 45 29.025   -22 12 10.03  .11209 1.1053 142.6 21.6 79.3 158
2020 08 07 01  23 45 46.774   -22 20 36.08  .11221 1.1054 142.6 21.6 80.1 158
2020 08 07 02  23 46 04.510   -22 29 00.87  .11234 1.1054 142.6 21.6 80.8 158
2020 08 07 03  23 46 22.232   -22 37 24.38  .11247 1.1055 142.5 21.6 81.6 158
2020 08 07 04  23 46 39.941   -22 45 46.62  .11260 1.1055 142.5 21.6 82.4 158
2020 08 07 05  23 46 57.635   -22 54 07.57  .11273 1.1056 142.4 21.6 83.1 158
2020 08 07 06  23 47 15.316   -23 02 27.24  .11286 1.1056 142.4 21.6 83.9 158
2020 08 07 07  23 47 32.983   -23 10 45.62  .11299 1.1057 142.4 21.6 84.7 158
2020 08 07 08  23 47 50.635   -23 19 02.71  .11312 1.1058 142.3 21.6 85.5 158
2020 08 07 09  23 48 08.274   -23 27 18.50  .11326 1.1058 142.3 21.6 86.2 158
2020 08 07 10  23 48 25.898   -23 35 32.99  .11339 1.1059 142.2 21.6 87.0 158
2020 08 07 11  23 48 43.508   -23 43 46.17  .11353 1.1059 142.2 21.6 87.8 158
2020 08 07 12  23 49 01.103   -23 51 58.04  .11366 1.1060 142.1 21.6 88.6 158
2020 08 07 13  23 49 18.684   -24 00 08.61  .11380 1.1060 142.1 21.6 89.3 158
2020 08 07 14  23 49 36.250   -24 08 17.85  .11394 1.1061 142.0 21.6 90.1 158
2020 08 07 15  23 49 53.802   -24 16 25.78  .11408 1.1062 142.0 21.6 90.9 158
2020 08 07 16  23 50 11.339   -24 24 32.39  .11422 1.1062 142.0 21.6 91.7 158
2020 08 07 17  23 50 28.861   -24 32 37.67  .11436 1.1063 141.9 21.6 92.5 158
2020 08 07 18  23 50 46.369   -24 40 41.63  .11450 1.1063 141.9 21.6 93.2 158
2020 08 07 19  23 51 03.861   -24 48 44.25  .11464 1.1064 141.8 21.6 94.0 158
2020 08 07 20  23 51 21.338   -24 56 45.54  .11478 1.1065 141.8 21.6 94.8 158
2020 08 07 21  23 51 38.801   -25 04 45.49  .11493 1.1065 141.7 21.6 95.6 158
2020 08 07 22  23 51 56.248   -25 12 44.11  .11507 1.1066 141.7 21.7 96.3 158
2020 08 07 23  23 52 13.679   -25 20 41.38  .11522 1.1066 141.6 21.7 97.1 157
2020 08 08 00  23 52 31.096   -25 28 37.31  .11536 1.1067 141.6 21.7 97.9 157
2020 08 08 01  23 52 48.497   -25 36 31.89  .11551 1.1068 141.5 21.7 98.7 157
2020 08 08 02  23 53 05.882   -25 44 25.13  .11566 1.1068 141.5 21.7 99.4 157
2020 08 08 03  23 53 23.252   -25 52 17.01  .11580 1.1069 141.4 21.7  100 157
2020 08 08 04  23 53 40.606   -26 00 07.54  .11595 1.1069 141.4 21.7  101 157
2020 08 08 05  23 53 57.944   -26 07 56.72  .11610 1.1070 141.3 21.7  102 157
2020 08 08 06  23 54 15.267   -26 15 44.54  .11625 1.1071 141.3 21.7  103 157